www.pogodaiklimat.ru

ПОГОДА в Андовере, NJ

  • Прогноз погоды в Андовере
  • Монитор погоды в Андовере
  • Климат в Андовере

АРХИВ ПОГОДЫ в Андовере

Время (UTC), дата Ветер
(напр.,м/с)
 
Видим.   Явления Облачность Т
(С)
Тd
(С)
f
(%)
Тe
(С)
Тes
(С)
Комфортность

P
(гПа)

Po
(гПа)
Тmin
(С)
Tmax
(С)
R
(мм)
SD
(см)
21:54 17.06   н/о    н/о  +23.3  +18.3  73  +29  +29  душно  1014.7  994.2         
22:54 17.06   н/о    н/о  +22.2  +18.9  82  +28  +28  душно  1014.9  994.2  +21.7  +23.9     
23:54 17.06   н/о    н/о  +20.6  +18.9  90  +24  +24  комфорт  1014.8  994.2         
00:54 18.06   н/о    н/о  +19.4  +18.3  93  +21  +21  комфорт  1015.2  994.5         
01:54 18.06   н/о    н/о  +20.0  +18.9  93  +23  +23  комфорт  1015.4  994.5         
02:54 18.06   н/о    н/о  +20.0  +18.9  93  +23  +23  комфорт  1015.3  994.5         
03:54 18.06   н/о    н/о  +20.0  +18.9  93  +23  +23  комфорт  1015.0  994.5         
04:54 18.06   н/о    н/о  +20.0  +18.9  93  +23  +23  комфорт  1014.7  993.9  +19.4  +22.2     
05:54 18.06   н/о    н/о  +19.4  +18.9  97  +22  +22  комфорт  1014.0  993.5         
06:54 18.06   н/о    н/о  +19.4  +18.9  97  +22  +22  комфорт  1013.8  993.2         
07:54 18.06   н/о    н/о  +20.0  +18.9  93  +23  +23  комфорт  1013.8  993.2         
08:54 18.06   н/о    н/о  +19.4  +18.9  97  +22  +22  комфорт  1014.0  993.2         
09:54 18.06   н/о    н/о  +19.4  +19.4  100  +22  +22  комфорт  1013.9  993.2         
10:54 18.06   н/о    н/о  +20.6  +19.4  93  +25  +25  комфорт  1014.0  993.2  +19.4  +20.6  5.6   
11:54 18.06   н/о    н/о  +21.7  +20.6  93  +27  +27  душно  1013.6  992.9         
12:54 18.06 нст  н/о    н/о  +21.1  +20.6  97  +26  +26  душно  1013.5  992.9         
13:54 18.06   н/о    н/о  +20.6  +19.4  93  +25  +25  комфорт  1013.2  992.5      11.2   
14:54 18.06   н/о    н/о  +21.7  +20.0  90  +27  +27  душно  1012.8  992.2         
15:54 18.06 С  н/о    н/о  +21.1  +20.0  93  +26  +26  душно  1012.6  991.9         
16:54 18.06 нст  н/о    н/о  +19.4  +17.8  90  +22  +22  комфорт  1012.2  991.5  +19.4  +21.7  13.5   
17:54 18.06 нст  н/о    н/о  +20.6  +18.9  90  +25  +25  комфорт  1011.5  990.9         
18:54 18.06   н/о    н/о  +20.0  +19.4  96  +23  +23  комфорт  1011.4  990.6         
19:54 18.06 СВ  н/о    н/о  +19.4  +18.9  97  +22  +22  комфорт  1011.1  990.6      12.2   
20:54 18.06 нст  н/о    н/о  +19.4  +18.3  93  +22  +22  комфорт  1011.1  990.2         
21:54 18.06   н/о    н/о  +19.4  +18.9  97  +22  +22  комфорт  1011.2  990.6         
22:54 18.06   н/о    н/о  +20.0  +18.9  93  +23  +23  комфорт  1011.3  990.6  +18.9  +20.6  14.7   
23:54 18.06   н/о    н/о  +19.4  +18.9  97  +22  +22  комфорт  1011.5  990.9         
00:54 19.06   н/о    н/о  +19.4  +18.9  97  +22  +22  комфорт  1012.1  991.2         
01:54 19.06   н/о    н/о  +19.4  +18.9  97  +22  +22  комфорт  1012.3  991.5         
02:54 19.06   н/о    н/о  +19.4  +18.9  97  +22  +22  комфорт  1012.2  991.5         
03:54 19.06   н/о    н/о  +18.9  +18.3  96  +20  +20    1012.0  991.2         
04:54 19.06   н/о    н/о  +18.9  +18.3  96  +20  +20    1012.2  991.5  +18.9  +20.0     
05:54 19.06   н/о    н/о  +18.9  +18.3  96  +20  +20    1011.5  990.9         
06:54 19.06   н/о    н/о  +18.9  +18.3  96  +20  +20    1011.3  990.6         
07:54 19.06   н/о    н/о  +18.9  +18.3  96  +20  +20    1011.3  990.6         
08:54 19.06   н/о    н/о  +18.9  +18.3  96  +20  +20    1011.2  990.6         
09:54 19.06   н/о    н/о  +18.9  +17.8  93  +20  +20    1011.2  990.6         
10:54 19.06   н/о    н/о  +20.0  +18.3  90  +23  +23  комфорт  1011.1  990.2  +18.9  +20.0     
11:54 19.06 нст  н/о    н/о  +20.6  +18.9  90  +25  +25  комфорт  1011.1  990.6         
12:54 19.06 нст  н/о    н/о  +20.6  +18.3  87  +25  +25  комфорт  1011.1  990.6         
13:54 19.06 нст  н/о    н/о  +21.1  +18.9  87  +25  +25  комфорт  1011.1  990.2         
14:54 19.06 Ю  н/о    н/о  +21.1  +18.9  87  +25  +25  комфорт  1010.7  989.9         
15:54 19.06   н/о    н/о  +21.1  +19.4  90  +26  +26  душно  1010.4  989.9         
16:54 19.06 нст  н/о    н/о  +21.1  +18.9  87  +25  +25  комфорт  1009.9  989.2  +19.4  +21.7     
17:54 19.06   н/о    н/о  +20.6  +18.9  90  +24  +24  комфорт  1009.4  988.9         
18:54 19.06 нст  н/о    н/о  +21.1  +18.9  87  +25  +25  комфорт  1009.0  988.2         
19:54 19.06 нст  н/о    н/о  +21.1  +18.9  87  +25  +25  комфорт  1008.5  987.9         
20:54 19.06   н/о    н/о  +21.1  +18.9  87  +25  +25  комфорт  1007.8  987.2         

 

Местоположение метеостанции Aeroflex-Andover Airport: широта 41.0093 долгота -74.7363 высота над уровнем моря 178 м.

В архиве по умолчанию представлена погода в Андовере за последние 1-2 суток. Обновление информации о фактической погоде в базе происходит ежечасно! Архивные данные за месяц целиком и за предыдущие месяцы Вы можете получить, выбрав интересующий диапазон дат из раскрывающегося списка и нажав кнопку "Ввод!".

Внимание! Архив погоды МЕТАР в базе сайта хранится не более 60 дней. Нет смысла пытаться выбрать более раннюю дату.

Внимание! Время в таблицах - всемирное. Для получения местного времени необходимо прибавить поправку, которая в Андовере равна -5 ч.

Ветер - указаны скорость ветра в м/с и направление, откуда дует ветер: С - северный, СВ - северо-восточный, В - восточный, ЮВ - юго-восточный, Ю - южный, ЮЗ - юго-западный, З - западный, СЗ - северо-западный.
Видимость - горизонтальная дальность видимости в метрах или километрах. При видимости от 1 до 10 км при отсутствии осадков обычно наблюдается дымка, при ухудшении видимости до 1 км и менее - туман. В сухую погоду видимость может ухудшаться дымом, пылью или мглою.
Атмосферные явления - указаны явления, наблюдавшиеся в указанный момент времени.
Облачность - указаны через наклонную черту верхняя и нижняя облачность в баллах и высота нижней границы облаков в метрах. Внимание: облачность, как и прочие метеорологические величины в США измеряются автоматическими метеостанциями. Указанные значения в баллах носят условный характер и показывают процент времени, в течение которого, в среднем, лазерный луч высотомера отражался от облаков обратно.
T - Температура воздуха - температура, измеренная на высоте 2 м над землей.
Td - Температура точки росы - температура, при понижении до которой содержащийся в воздухе водяной пар достигнет насыщения.
f - Относительная влажность воздуха - влажноcть воздуха, измеренная на высоте 2 м над землей.
Te - Эффективная температура - температура, которую ощущает одетый по сезону человек в тени. Характеристика душности погоды. При расчете учитывается влияние влажности воздуха и скорости ветра на теплоощущения человека.
Tes - Эффективная температура на солнце - температура, которую ощущает человек, с поправкой на солнечный нагрев. Характеристика знойности погоды. Зависит от высоты солнца над горизонтом, облачности и скорости ветра. Ночью, в пасмурную погоду, а также при ветре 12 м/с и более поправка равна нулю.
P - Атмосферное давление - приведенное к уровню моря атмосферное давление.
Po - Атмосферное давление - измеренное на уровне метеостанции атмосферное давление.
Tmin - Минимальная температура - минимум температуры воздуха на высоте 2 м над землей.
Tmax - Максимальная температура - максимум температуры воздуха на высоте 2 м над землей.
R - Количество осадков - Количество выпавших осадков за 3 или 6 часов, мм.
SD - Снежный покров - Высота снежного покрова, см.